WHITEHORSE,Y.T current weather conditions

sailwx.info

Wind from 190 at 11 knots

Air temperature 4.0° C
Visibility: greater than 34.8 NM
Dewpoint -8.0° C

Last reported at 2018-Apr-21 03:00 UTC.
Time now 2018-Apr-21 04:08 UTC

Location: N 60°43' W 135°04'.
View on Google Maps.

See reports from other nearby stations

  
Tides and Currents Weather Stations Pressure Air Temp Water Temp Dewpoint Dewpoint Depression Visibility Wind Speed Wind Dir Waves Ship Positions
date/time (UTC)wind fromknots sea level pressurealtimeterstation pressurevisibilityair tempwater tempwave heightnotes
2018-Apr-21 03:00 190 11 34.8 4.0
2018-Apr-21 02:00 190 13 gusting 19 34.8 4.0
2018-Apr-21 01:00 200 9 gusting 18 34.8 5.0
2018-Apr-21 00:00 210 11 gusting 15 34.8 5.0
2018-Apr-20 23:00 190 15 gusting 21 34.8 5.0
2018-Apr-20 22:00 180 11 gusting 25 34.8 4.0
2018-Apr-20 21:00 210 13 gusting 22 34.8 4.0
2018-Apr-20 20:00 170 21 gusting 27 34.8 4.0
2018-Apr-20 19:00 230 9 gusting 22 34.8 4.0
2018-Apr-20 18:00 200 8 gusting 18 34.8 4.0
2018-Apr-20 17:00 160 6 gusting 22 34.8 2.0
2018-Apr-20 16:00 160 13 34.8 1.0
2018-Apr-20 15:00 180 11 gusting 17 34.8-0.0
2018-Apr-20 14:00 160 9 34.8-1.0
2018-Apr-20 13:00 160 12 34.8-1.0
2018-Apr-20 12:00 170 8 gusting 17 13.0-0.0
2018-Apr-20 11:00 200 12 gusting 20 13.0-0.0
2018-Apr-20 10:00 150 13 gusting 19 13.0-0.0
2018-Apr-20 09:00 160 11 13.0-0.0
2018-Apr-20 08:00 160 17 13.0-0.0
2018-Apr-20 07:00 170 13 13.0-0.0
2018-Apr-20 06:00 160 11 13.0 1.0
2018-Apr-20 05:00 160 9 34.8 2.0
2018-Apr-20 04:22 160 7 21.7 2.0 Showers in the vicinity.
2018-Apr-20 04:00 170 11 gusting 17 21.7 3.0 Showers in the vicinity.
2018-Apr-20 03:00 160 15 34.8 4.0 Showers in the vicinity.
2018-Apr-20 02:00 160 15 gusting 21 34.8 5.0
2018-Apr-20 01:00 200 9 34.8 6.0
2018-Apr-20 00:00 180 12 34.8 4.0
2018-Apr-19 23:00 190 17 13.0 5.0 Showers in the vicinity.
2018-Apr-19 22:00 150 9 gusting 14 34.8 5.0
2018-Apr-19 21:00 150 8 gusting 14 34.8 5.0
2018-Apr-19 20:00 160 13 34.8 3.0
2018-Apr-19 19:00 160 13 34.8 2.0
2018-Apr-19 18:00 160 9 gusting 15 34.8 2.0
2018-Apr-19 17:00 150 8 34.8 1.0
2018-Apr-19 16:00 150 7 gusting 14 34.8 1.0
2018-Apr-19 15:00 150 11 34.8-0.0
2018-Apr-19 14:00 160 9 34.8-0.0
2018-Apr-19 13:00 160 11 34.8-0.0
2018-Apr-19 12:00 160 12 13.0-0.0
2018-Apr-19 11:00 160 12 13.0-0.0
2018-Apr-19 10:00 160 11 13.0 1.0
2018-Apr-19 09:00 150 8 13.0 1.0
2018-Apr-19 08:00 150 12 13.0 1.0
2018-Apr-19 07:00 150 11 13.0 1.0
2018-Apr-19 06:00 170 13 13.0 1.0
2018-Apr-19 05:00 080 5 34.8 2.0
2018-Apr-19 04:45 100 4 34.8 2.0
2018-Apr-19 04:00 130 5 34.8 3.0